TimeEDT,TemperatureF,Dew PointF,Humidity,Sea Level PressureIn,VisibilityMPH,Wind Direction,Wind SpeedMPH,Gust SpeedMPH,PrecipitationIn,Events,Conditions,WindDirDegrees,DateUTC
12:53 AM,66.9,62.1,84,29.81,10.0,Calm,Calm,-,N/A,,Clear,0,2013-07-21 04:53:00
1:53 AM,64.9,61.0,87,29.83,10.0,Calm,Calm,-,N/A,,Clear,0,2013-07-21 05:53:00
2:53 AM,64.0,60.1,87,29.84,10.0,Calm,Calm,-,N/A,,Clear,0,2013-07-21 06:53:00
3:53 AM,63.0,60.1,90,29.87,10.0,Calm,Calm,-,N/A,,Clear,0,2013-07-21 07:53:00
4:53 AM,61.0,57.9,90,29.89,10.0,Calm,Calm,-,N/A,,Clear,0,2013-07-21 08:53:00
5:53 AM,61.0,57.9,90,29.91,10.0,Calm,Calm,-,N/A,,Partly Cloudy,0,2013-07-21 09:53:00
6:53 AM,64.9,60.1,84,29.93,10.0,Calm,Calm,-,N/A,,Clear,0,2013-07-21 10:53:00
7:53 AM,69.1,55.0,61,29.94,10.0,East,4.6,-,N/A,,Scattered Clouds,80,2013-07-21 11:53:00
8:53 AM,71.1,55.0,57,29.96,10.0,Variable,4.6,-,N/A,,Mostly Cloudy,0,2013-07-21 12:53:00
9:53 AM,72.0,55.9,57,29.97,10.0,Calm,Calm,-,N/A,,Overcast,0,2013-07-21 13:53:00
10:53 AM,73.0,55.9,55,29.98,10.0,Calm,Calm,-,N/A,,Scattered Clouds,0,2013-07-21 14:53:00
11:53 AM,73.9,55.0,52,29.99,10.0,South,8.1,-,N/A,,Partly Cloudy,180,2013-07-21 15:53:00
12:53 PM,73.0,52.0,48,30.00,10.0,South,6.9,-,N/A,,Overcast,180,2013-07-21 16:53:00
1:53 PM,73.9,52.0,46,30.00,10.0,South,8.1,-,N/A,,Scattered Clouds,180,2013-07-21 17:53:00
2:53 PM,73.9,55.9,53,29.99,10.0,SSW,8.1,-,N/A,,Scattered Clouds,200,2013-07-21 18:53:00
3:53 PM,73.9,53.1,48,29.99,10.0,South,6.9,-,N/A,,Clear,190,2013-07-21 19:53:00
4:53 PM,73.0,55.0,53,29.99,10.0,SE,9.2,-,N/A,,Partly Cloudy,130,2013-07-21 20:53:00
5:53 PM,72.0,55.9,57,29.99,10.0,SE,4.6,-,N/A,,Clear,140,2013-07-21 21:53:00
6:53 PM,70.0,57.0,63,29.99,10.0,Variable,3.5,-,N/A,,Clear,0,2013-07-21 22:53:00
7:53 PM,68.0,59.0,73,29.99,10.0,Calm,Calm,-,N/A,,Clear,0,2013-07-21 23:53:00
8:53 PM,66.0,59.0,78,30.00,10.0,Calm,Calm,-,N/A,,Clear,0,2013-07-22 00:53:00
9:53 PM,62.1,59.0,90,30.02,10.0,Calm,Calm,-,N/A,,Clear,0,2013-07-22 01:53:00
10:53 PM,61.0,57.9,90,30.04,10.0,Calm,Calm,-,N/A,,Clear,0,2013-07-22 02:53:00
11:53 PM,60.1,57.9,93,30.04,10.0,Calm,Calm,-,N/A,,Partly Cloudy,0,2013-07-22 03:53:00